This is the latest recevied weather packets stored in our database for station/object OK1UZT-14. If no packets are shown the sender has not sent any weather packets the latest 10 day(s).
| Time | Temp. | Humidity | Pressure | Rain* | Wind** | Luminosity | Snow |
|---|---|---|---|---|---|---|---|
| 1788701535 | 18.33° C | 45% | 1025.8 hPa | - | - | - | - |
| 1788700935 | 17.78° C | 46% | 1025.8 hPa | - | - | - | - |
| 1788700335 | 17.78° C | 46% | 1025.9 hPa | - | - | - | - |
| 1788699735 | 18.33° C | 45% | 1025.6 hPa | - | - | - | - |
| 1788699135 | 17.78° C | 44% | 1025.8 hPa | - | - | - | - |
| 1788697935 | 17.78° C | 47% | 1025.9 hPa | - | - | - | - |
| 1788697335 | 17.78° C | 47% | 1026 hPa | - | - | - | - |
| 1788696135 | 17.78° C | 48% | 1025.8 hPa | - | - | - | - |
| 1788695535 | 18.33° C | 43% | 1025.8 hPa | - | - | - | - |
| 1788694335 | 17.78° C | 46% | 1026 hPa | - | - | - | - |
| 1788693735 | 17.78° C | 43% | 1025.9 hPa | - | - | - | - |
| 1788693135 | 17.78° C | 46% | 1026 hPa | - | - | - | - |
| 1788691935 | 17.22° C | 48% | 1026 hPa | - | - | - | - |
| 1788691335 | 17.22° C | 49% | 1025.9 hPa | - | - | - | - |
| 1788690736 | 17.22° C | 48% | 1025.9 hPa | - | - | - | - |
| 1788690135 | 16.67° C | 49% | 1026 hPa | - | - | - | - |
| 1788689535 | 17.22° C | 49% | 1025.9 hPa | - | - | - | - |
| 1788688935 | 16.67° C | 50% | 1025.9 hPa | - | - | - | - |
| 1788688335 | 16.11° C | 52% | 1026.1 hPa | - | - | - | - |
| 1788687135 | 16.67° C | 52% | 1025.8 hPa | - | - | - | - |
| 1788686535 | 16.67° C | 51% | 1025.8 hPa | - | - | - | - |
| 1788685935 | 16.11° C | 53% | 1025.9 hPa | - | - | - | - |
| 1788685335 | 16.11° C | 52% | 1025.5 hPa | - | - | - | - |
| 1788684735 | 16.11° C | 54% | 1025.8 hPa | - | - | - | - |
| 1788684135 | 16.11° C | 54% | 1025.7 hPa | - | - | - | - |
* Rain since midnight (hover to see other rain measurements)
** Current wind speed in m/s (hover to see current wind gust speed)